Hourly Data Report for October 18, 2016

All times are specified in Local Standard Time (LST). Add 1 hour to adjust for Daylight Saving Time where and when it is observed.

ARVIAT A
NUNAVUT

61°05'38.000" N
94°04'18.000" W
10.40 m
2300427
71174
YEK

Download Data

Hourly Data (October 2016)
Hourly Data Report for October 18, 2016
Temp Definition
°C
Dew Point Temp Definition
°C
Rel Hum Definition
%
Wind Dir Definition
10's deg

Wind Spd Definition
km/h
Visibility Definition
km
Stn Press Definition
kPa
Hmdx Definition


Wind Chill Definition


Weather Definition


TIME
00:00 Legend Double Dagger 0.4 -0.8 92 11 30 6.4 101.32     Rain,Fog
01:00 Legend Double Dagger 1.2 -1.0 85 10 37 16.1 101.31     LegendNANA
02:00 Legend Double Dagger 1.1 -1.5 83 10 35 16.1 101.33     Rain
03:00 Legend Double Dagger 0.6 -0.9 90 10 32 14.5 101.30     Rain
04:00 Legend Double Dagger 1.0 -2.2 79 10 35 16.1 101.28     LegendNANA
05:00 Legend Double Dagger 0.9 -1.5 84 9 43 14.5 101.29     LegendNANA
06:00 Legend Double Dagger 0.8 -1.1 87 8 39 16.1 101.29     LegendNANA
07:00 Legend Double Dagger 0.9 -1.1 86 8 45 16.1 101.30     LegendNANA
08:00 Legend Double Dagger 0.9 -1.5 84 7 37 16.1 101.31     LegendNANA
09:00 Legend Double Dagger 1.0 -2.2 79 8 34 16.1 101.32     LegendNANA
10:00 Legend Double Dagger 1.1 -2.5 77 8 41 16.1 101.33     LegendNANA
11:00 Legend Double Dagger 1.1 -2.6 76 9 39 16.1 101.37     LegendNANA
12:00 Legend Double Dagger 1.1 -2.6 76 8 34 16.1 101.39     LegendNANA
13:00 Legend Double Dagger 1.1 -2.8 75 9 37 16.1 101.41     LegendNANA
14:00 Legend Double Dagger 1.2 -2.4 77 9 37 16.1 101.42     LegendNANA
15:00 Legend Double Dagger 1.2 -2.3 78 9 30 16.1 101.44     LegendNANA
16:00 Legend Double Dagger 1.2 -2.0 79 7 32 16.1 101.46     LegendNANA
17:00 Legend Double Dagger 1.1 -2.3 78 7 34 16.1 101.50     LegendNANA
18:00 Legend Double Dagger 1.0 -2.7 76 8 30 16.1 101.53     LegendNANA
19:00 Legend Double Dagger 1.0 -3.0 75 7 35 16.1 101.57     LegendNANA
20:00 Legend Double Dagger 1.0 -3.2 74 6 34 16.1 101.63     LegendNANA
21:00 Legend Double Dagger 0.9 -3.0 75 7 32 16.1 101.69     LegendNANA
22:00 Legend Double Dagger 1.1 -2.6 77 8 34 16.1 101.70     LegendNANA
23:00 Legend Double Dagger 1.0 -3.4 73 7 32 16.1 101.73     LegendNANA

Notes on Data Quality.

Legend

  • E = Estimated
  • M = Missing
  • NA = Not Available
  • ‡ = Partner data that is not subject to review by the National Climate Archives
Date modified: